Find Starlink 5633

NORAD ID: 55410 Int'l Des: 2023-014 Owner: SPXS Country: US Constellation: starlink operational
LEOCIRCULAR

Live Position

Loading 3D Globe...

About Starlink 5633

Description loading...

Upcoming Passes

Passes for default location (London). Set your location on the main map for personalized predictions.

Altitude History

Loading altitude history...

Two-Line Element Set

1 55410U 23014V 26121.54577338 -.00000052 00000-0 33966-5 0 9999
2 55410 69.9986 311.0204 0002728 269.0169 91.0677 14.98329809179489
Epoch: May 1, 2026 • Age: 5 hours

Current Status

Altitude 580.9 km
Velocity 7.57 km/s
Sub-Earth Point 49.67°N, 31.46°W
Launch Date Jan 31, 2023
Age 3.2 years
Type internet

Technical Details

Classification Payload
Mass 305.00 kg
Dry Mass 290.00 kg
Total Mass 305.00 kg
Length 0.20 m
Diameter 2.80 m
Span 9.00 m
Shape Box + pan
Manufacturer SPXS
Bus Type Starlink
Phase Status In Orbit
Owner/State SPXS/US

Most Searched